Cumberland, WV

10:02 AM EDT on July 24, 2017 (GMT -0400)
Greater Cumberland Regional

Weather History for KCBE - May, 2014

Change the Weather History Date:

Saturday, May 10, 2014

  Actual Average (KMRB) Record (KMRB)
Temperature  
Mean Temperature 66 °F -  
Max Temperature 73 °F 73 °F 95 °F (1936)
Min Temperature 59 °F 47 °F 29 °F (1947)
Cooling Degree Days 2    
Growing Degree Days 16 (Base 50)    
Moisture  
Dew Point 59 °F    
Average Humidity 72    
Maximum Humidity 100    
Minimum Humidity 50    
Precipitation  
Precipitation 0.00 in - - ()
Sea Level Pressure  
Sea Level Pressure 30.01 in    
Wind  
Wind Speed 6 mph (SSW)    
Max Wind Speed 13 mph    
Max Gust Speed 22 mph    
Visibility 10 miles    
Events      
Averages and records for this station are not official NWS values.
T = Trace of Precipitation, MM = Missing Value Source: NWS Daily Summary

Daily Weather History Graph

Daily Weather History Graph

Search for Another Location

Airport or City:

Trip Planner

Search our weather history database for the weather conditions in past years. The results will help you decide how hot, cold, wet, or windy it might be!

Date:

Astronomy

May. 10, 2014 Rise Set
Actual Time 6:05 AM EDT 8:17 PM EDT
Civil Twilight 5:35 AM EDT 8:47 PM EDT
Nautical Twilight 4:58 AM EDT 9:24 PM EDT
Astronomical Twilight 4:18 AM EDT 10:05 PM EDT
Moon 4:12 PM EDT (5/10) 3:36 AM EDT (5/10)
Length of Visible Light 15h 12m
Length of Day
14h 12m
Waxing Gibbous, 82% of the Moon is Illuminated
May 10
Waxing Gibbous
May 14
Full
May 21
Last Quarter
May 28
New
Jun 5
First Quarter

Hourly Weather History & Observations

Time (EDT) Temp. Dew Point Humidity Pressure Visibility Wind Dir Wind Speed Gust Speed Precip Events Conditions
12:19 AM 69.8 °F 59.0 °F 68% 29.99 in 10.0 mi South 3.5 mph - N/A   Clear
12:39 AM 71.6 °F 59.0 °F 64% 29.99 in 10.0 mi WSW 10.4 mph - N/A   Scattered Clouds
12:59 AM 71.6 °F 59.0 °F 64% 30.00 in 10.0 mi SW 9.2 mph 21.9 mph N/A   Scattered Clouds
1:19 AM 71.6 °F 59.0 °F 64% 30.00 in 10.0 mi SW 11.5 mph 18.4 mph N/A   Scattered Clouds
1:39 AM 71.6 °F 59.0 °F 64% 29.99 in 10.0 mi SSW 8.1 mph 17.3 mph N/A   Scattered Clouds
1:59 AM 71.6 °F 59.0 °F 64% 29.99 in 10.0 mi SSW 9.2 mph 16.1 mph N/A   Mostly Cloudy
2:19 AM 69.8 °F 59.0 °F 68% 29.97 in 10.0 mi South 8.1 mph - N/A   Scattered Clouds
2:40 AM 69.8 °F 59.0 °F 68% 29.97 in 10.0 mi Calm Calm - N/A   Scattered Clouds
3:00 AM 69.8 °F 59.0 °F 68% 29.98 in 10.0 mi SSW 4.6 mph - N/A   Scattered Clouds
3:20 AM 69.8 °F 60.8 °F 73% 29.98 in 10.0 mi SE 4.6 mph - N/A   Scattered Clouds
3:40 AM 69.8 °F 60.8 °F 73% 29.97 in 10.0 mi South 4.6 mph - N/A   Scattered Clouds
4:00 AM 68.0 °F 60.8 °F 78% 29.97 in 10.0 mi SSE 4.6 mph - N/A   Scattered Clouds
4:20 AM 68.0 °F 60.8 °F 78% 29.97 in 10.0 mi South 3.5 mph - N/A   Clear
4:40 AM 69.8 °F 60.8 °F 73% 29.98 in 10.0 mi South 5.8 mph - N/A   Scattered Clouds
5:00 AM 69.8 °F 60.8 °F 73% 29.97 in 10.0 mi SSW 3.5 mph - N/A   Scattered Clouds
5:20 AM 71.6 °F 59.0 °F 64% 29.98 in 10.0 mi West 11.5 mph 17.3 mph N/A   Clear
5:40 AM 71.6 °F 57.2 °F 60% 29.99 in 10.0 mi SW 8.1 mph 18.4 mph N/A   Clear
6:00 AM 71.6 °F 59.0 °F 64% 30.00 in 10.0 mi SSW 8.1 mph - N/A   Mostly Cloudy
6:20 AM 71.6 °F 59.0 °F 64% 30.01 in 10.0 mi SW 9.2 mph - N/A   Scattered Clouds
6:40 AM 69.8 °F 59.0 °F 68% 30.01 in 10.0 mi WSW 3.5 mph - N/A   Clear
7:00 AM 71.6 °F 59.0 °F 64% 30.02 in 10.0 mi WSW 4.6 mph - N/A   Clear
7:20 AM 71.6 °F 57.2 °F 60% 30.02 in 10.0 mi SW 3.5 mph - N/A   Clear
7:40 AM 71.6 °F 59.0 °F 64% 30.03 in 10.0 mi South 3.5 mph - N/A   Clear
8:00 AM 71.6 °F 59.0 °F 64% 30.02 in 10.0 mi Calm Calm - N/A   Clear
8:20 AM 71.6 °F 57.2 °F 60% 30.03 in 10.0 mi WSW 5.8 mph - N/A   Clear
8:40 AM 71.6 °F 59.0 °F 64% 30.04 in 10.0 mi SSW 9.2 mph - N/A   Scattered Clouds
9:00 AM 71.6 °F 57.2 °F 60% 30.04 in 10.0 mi SSW 6.9 mph - N/A   Scattered Clouds
9:20 AM 71.6 °F 59.0 °F 64% 30.04 in 10.0 mi SSW 5.8 mph - N/A   Clear
9:40 AM 71.6 °F 57.2 °F 60% 30.05 in 10.0 mi SSW 6.9 mph - N/A   Clear
10:00 AM 71.6 °F 57.2 °F 60% 30.05 in 10.0 mi South 8.1 mph - N/A   Clear
10:20 AM 71.6 °F 59.0 °F 64% 30.04 in 10.0 mi SSW 8.1 mph - N/A   Scattered Clouds
10:40 AM 71.6 °F 57.2 °F 60% 30.04 in 10.0 mi SW 9.2 mph - N/A   Clear
11:00 AM 71.6 °F 59.0 °F 64% 30.03 in 10.0 mi South 4.6 mph - N/A   Clear
11:21 AM 73.4 °F 57.2 °F 57% 30.03 in 10.0 mi SSW 8.1 mph 17.3 mph N/A   Scattered Clouds
11:41 AM 73.4 °F 57.2 °F 57% 30.03 in 10.0 mi SSW 8.1 mph 11.5 mph N/A   Scattered Clouds
12:01 PM 73.4 °F 57.2 °F 57% 30.03 in 10.0 mi SW 10.4 mph - N/A   Scattered Clouds
12:21 PM 73.4 °F 55.4 °F 53% 30.02 in 10.0 mi SSW 9.2 mph 18.4 mph N/A   Scattered Clouds
12:41 PM 73.4 °F 53.6 °F 50% 30.02 in 10.0 mi SSW 10.4 mph 19.6 mph N/A   Scattered Clouds
1:01 PM 73.4 °F 53.6 °F 50% 30.02 in 10.0 mi SW 12.7 mph 20.7 mph N/A   Scattered Clouds
1:21 PM 73.4 °F 53.6 °F 50% 30.00 in 10.0 mi SSW 9.2 mph - N/A   Clear
1:41 PM 73.4 °F 55.4 °F 53% 30.00 in 10.0 mi West 10.4 mph - N/A   Clear
2:01 PM 73.4 °F 55.4 °F 53% 30.01 in 10.0 mi WSW 11.5 mph - N/A   Scattered Clouds
2:21 PM 73.4 °F 53.6 °F 50% 30.00 in 10.0 mi WSW 10.4 mph - N/A   Scattered Clouds
2:41 PM 73.4 °F 55.4 °F 53% 29.99 in 10.0 mi WSW 5.8 mph - N/A   Scattered Clouds
3:01 PM 73.4 °F 55.4 °F 53% 29.99 in 10.0 mi SW 4.6 mph - N/A   Mostly Cloudy
3:21 PM 71.6 °F 55.4 °F 57% 29.98 in 10.0 mi Calm Calm - N/A   Mostly Cloudy
3:41 PM 71.6 °F 59.0 °F 64% 29.98 in 10.0 mi South 8.1 mph - N/A   Mostly Cloudy
4:01 PM 71.6 °F 60.8 °F 69% 29.98 in 10.0 mi South 6.9 mph - N/A   Scattered Clouds
4:21 PM 69.8 °F 60.8 °F 73% 29.97 in 10.0 mi South 8.1 mph - N/A   Scattered Clouds
4:41 PM 68.0 °F 62.6 °F 83% 29.97 in 5.0 mi SSE 5.8 mph - N/A   Mostly Cloudy
5:01 PM 68.0 °F 64.4 °F 88% 29.98 in 10.0 mi Calm Calm - N/A   Mostly Cloudy
5:21 PM 68.0 °F 64.4 °F 88% 29.98 in 10.0 mi North 5.8 mph - N/A   Mostly Cloudy
5:41 PM 66.2 °F 62.6 °F 88% 29.98 in 10.0 mi East 5.8 mph - N/A   Mostly Cloudy
6:01 PM 66.2 °F 62.6 °F 88% 29.98 in 10.0 mi NNE 3.5 mph - N/A   Mostly Cloudy
6:21 PM 64.4 °F 62.6 °F 94% 29.99 in 2.5 mi NNW 4.6 mph - N/A   Overcast
6:41 PM 62.6 °F 60.8 °F 94% 30.00 in 1.0 mi NNE 8.1 mph - N/A   Overcast
7:01 PM 62.6 °F 59.0 °F 88% 30.01 in 10.0 mi North 6.9 mph 10.4 mph N/A   Overcast
7:22 PM 60.8 °F 59.0 °F 94% 30.02 in 10.0 mi NNE 5.8 mph - N/A   Mostly Cloudy
7:42 PM 60.8 °F 59.0 °F 94% 30.00 in 10.0 mi North 4.6 mph - N/A   Overcast
8:02 PM 60.8 °F 59.0 °F 94% 30.02 in 10.0 mi Calm Calm - N/A   Overcast
8:22 PM 60.8 °F 59.0 °F 94% 30.02 in 4.0 mi Calm Calm - N/A   Mostly Cloudy
8:42 PM 60.8 °F 59.0 °F 94% 30.01 in 10.0 mi Calm Calm - N/A   Scattered Clouds
9:02 PM 60.8 °F 59.0 °F 94% 30.03 in 10.0 mi SW 5.8 mph 17.3 mph N/A   Clear
9:22 PM 60.8 °F 59.0 °F 94% 30.03 in 10.0 mi East 3.5 mph - N/A   Clear
9:42 PM 60.8 °F 59.0 °F 94% 30.03 in 10.0 mi SE 3.5 mph - N/A   Clear
10:02 PM 60.8 °F 59.0 °F 94% 30.02 in 10.0 mi Calm Calm - N/A   Clear
10:22 PM 60.8 °F 59.0 °F 94% 30.00 in 10.0 mi South 6.9 mph - N/A   Clear
10:42 PM 60.8 °F 59.0 °F 94% 30.02 in 10.0 mi Calm Calm - N/A   Clear
11:02 PM 60.8 °F 59.0 °F 94% 30.04 in 10.0 mi NNW 8.1 mph - N/A   Clear
11:22 PM 60.8 °F 59.0 °F 94% 30.03 in 10.0 mi ENE 5.8 mph - N/A   Scattered Clouds
11:42 PM 59.0 °F 59.0 °F 100% 30.04 in 10.0 mi Calm Calm - N/A   Scattered Clouds